Regional Weather Roundup
Issued by NWS

Home | Current Version | Previous Version | Text Only | Print | Product List | Glossary Off
Versions: 1 2 3 4 5 6 7 8 9 10 11 12 13 14 15 16 17 18 19 20 21 22 23 24 25 26 27 28 29 30 31 32 33 34 35 36 37 38 39 40 41 42 43 44 45 46 47 48 49 50

444
ASUS43 KMKX 231301
RWRWI

WISCONSIN REGIONAL WEATHER ROUNDUP
NATIONAL WEATHER SERVICE MILWAUKEE/SULLIVAN WI
800 AM CDT WED AUG 23 2017

NOTE: "FAIR" INDICATES FEW OR NO CLOUDS BELOW 12,000 FEET WITH NO
SIGNIFICANT WEATHER AND/OR OBSTRUCTIONS TO VISIBILITY.

WIZ001-002-006>008-014>016-023>028-231400-
NORTHWEST WISCONSIN

CITY           SKY/WX    TMP DP  RH WIND       PRES   REMARKS
SUPERIOR ARPT    N/A     50  50  99 CALM      30.08R
ASHLAND        CLOUDY    56  52  86 NW8       30.06R
HAYWARD        SUNNY     52  49  89 S3        30.08R
SIREN          SUNNY     51  51  97 NW3       30.10R
CUMBERLAND     SUNNY     54  50  87 NW7       30.09R
RICE LAKE      SUNNY     52  51  95 CALM      30.10R
CHETEK         SUNNY     53  51  91 CALM      30.09R
LADYSMITH      SUNNY     54  52  92 NW6       30.08S
EAU CLAIRE     NOT AVBL
MENOMONIE      SUNNY     55  51  86 W5        30.09R
NEW RICHMOND   SUNNY     54  52  93 W3        30.10S
OSCEOLA        SUNNY     52  52 100 CALM      30.13R
$$

WIZ003>005-009-010-017-018-231400-
NORTH CENTRAL WISCONSIN

CITY           SKY/WX    TMP DP  RH WIND       PRES   REMARKS
MANITOWISH WTR CLOUDY    53  53 100 NW6       30.04R
ARBOR VITAE    MOSUNNY   57  55  93 NW6       30.03S
WOODRUFF       MOSUNNY   57  55  93 NW6       30.03S
RHINELANDER    MOSUNNY   55  54  96 W7        30.04R
EAGLE RIVER    PTSUNNY   54  53  98 NW3       30.02R
LAND O LAKES   CLOUDY    53  51  92 NW3       30.04R
PHILLIPS       CLOUDY    51  51 100 W3        30.06R FOG
TOMAHAWK         N/A     52  51  97 NW6       30.05R
MEDFORD        SUNNY     50  49  97 NW5       30.05S
MERRILL        PTSUNNY   52  52 100 NW7       30.05R
$$

WIZ029-030-035-036-043>047-231400-
CENTRAL WISCONSIN

CITY           SKY/WX    TMP DP  RH WIND       PRES   REMARKS
WAUSAU         SUNNY     55  51  86 NW7       30.04R
MOSINEE        NOT AVBL
MARSHFIELD     SUNNY     56  51  84 NW8       30.05R
STEVENS POINT  SUNNY     53  51  94 W5        30.05R
WAUPACA        SUNNY     58  53  82 W6        30.03R
WAUTOMA        SUNNY     58  52  80 W7        30.05R
WISC RAPIDS    SUNNY     57  52  83 NW7       30.07R
CAMP DOUGLAS   NOT AVBL
$$

WIZ011>013-019>022-031-037>040-048>050-231400-
NORTHEAST WISCONSIN

CITY           SKY/WX    TMP DP  RH WIND       PRES   REMARKS
ANTIGO         CLOUDY    53  52  98 NW9       30.04R
SHAWANO        SUNNY     56  53  87 NW5       30.01R
OCONTO         SUNNY     56  52  85 NW5       29.99R
STURGEON BAY   MOSUNNY   60  55  83 NW12      29.99R
GREEN BAY      SUNNY     58  55  90 NW10      30.00R
MANITOWOC      NOT AVBL
APPLETON       SUNNY     55  54  94 W8        30.00R
CLINTONVILLE   SUNNY     55  50  82 NW8       30.01S
OSHKOSH        SUNNY     57  51  80 W8        30.02R
$$

WIZ032>034-041-042-053>061-231400-
SOUTHWEST WISCONSIN

CITY           SKY/WX    TMP DP  RH WIND       PRES   REMARKS
LA CROSSE      SUNNY     62  54  74 CALM      30.09R
SPARTA         SUNNY     49  48  95 CALM      30.08S
VIROQUA        SUNNY     53  52  97 NW3       30.08S
BOSCOBEL       SUNNY     57  52  83 SW5       30.09R
PRAIRIE DU CHI SUNNY     56  49  77 W6        30.09S
PLATTEVILLE    SUNNY     53  53 100 CALM      30.09R
$$

WIZ056-057-062-063-064-067-068-231400-
SOUTH CENTRAL WISCONSIN

CITY           SKY/WX    TMP DP  RH WIND       PRES   REMARKS
REEDSBURG      SUNNY     54  53  99 CALM      30.06S
BARABOO/DELLS  SUNNY     56  50  78 W6        30.06R
LONE ROCK      SUNNY     57  54  89 W5        30.08R
MINERAL POINT  SUNNY     54  52  94 NW3       30.08R
MADISON        SUNNY     59  52  77 NW5       30.05R
MIDDLETON      SUNNY     58  53  84 NW5       30.06S
WATERTOWN      SUNNY     56  54  90 W5        30.03S
MONROE         SUNNY     55  48  76 W8        30.07R
JANESVILLE     NOT AVBL
$$

WIZ051-052-058>065-066-070>072-231400-
SOUTHEAST WISCONSIN

CITY           SKY/WX    TMP DP  RH WIND       PRES   REMARKS
MILWAUKEE      SUNNY     64  52  64 NW10      30.02R
WAUKESHA       SUNNY     57  52  82 W9        30.04R
MILWAUKEE/TIMM SUNNY     59  48  67 NW8       30.03R
RACINE         SUNNY     61  53  75 NW8       30.03S
KENOSHA        SUNNY     61  52  72 NW10      30.03R
FOND DU LAC    SUNNY     59  51  75 W8        30.03R
SHEBOYGAN      SUNNY     60  56  86 NW7       30.01R
WEST BEND      SUNNY     57  52  82 NW10      30.02S
JUNEAU         SUNNY     56  51  85 CALM      30.04S
$$

LSZ147-162-231400-
LAKE SUPERIOR

STATION/POSITION TIME  TEMP    WIND        PRES    WAVE
                       AIR SEA DIR/SP/G            HT/PER
                 (UTC) (F)     (DEG/KT/KT) (MB)    (FT/S)
W MID LAKE BUOY  1150   58 59  340/ 16/ 19 1016.0R   2/ 4
DEVILS ISLAND    1200   59     310/ 12/ 13 1017.0R
PORT WING        1140   60     200/  1/  4 1017.6
SAXON HARBOR     1240   55     210/  5/  7 1016.9R
$$

LMZ867-665-643>646-231400-
LAKE MICHIGAN

STATION/POSITION TIME  TEMP    WIND        PRES    WAVE
                       AIR SEA DIR/SP/G            HT/PER
                 (UTC) (F)     (DEG/KT/KT) (MB)    (FT/S)
S GREEN BAY BUOY 1230   60 70  310/ 14/ 17 1015.2R
N MID LAKE BUOY  1150   60 66  310/ 17/ 21 1013.8R   2/ 4
NORTHPORT PIER   1240   62     320/ 17/ 22 1014.6R
KEWAUNEE LAKESHO 1230   58     310/  6/  8 1014.5R
SHEBOYGAN LAKESH 1200   58     290/  9/ 10 1015.4R
PORT WASHINGTON  1240   61     300/  8/ 12 1016.9R
ATWATER BUOY     1109   61 67  270/ 14/ 16 1015.8R
MILWAUKEE LAKESH 1230   61     310/  9/ 11   N/A
S MID LAKE BUOY  1150   67 71  330/ 17/ 21 1015.1R   4/ 5
KENOSHA   LAKESH 1200   60     280/ 10/ 13 1016.3
$$

TC  - TEMPERATURE IN CELSIUS
VSB - VISIBILITY IN STATUTE MILES
WCI - WIND CHILL INDEX
HX  - HEAT INDEX





USA.gov is the U.S. government's official web portal to all federal, state and local government web resources and services.